GPS BIIRM-3 (PRN 12)

Last updated on Sat Dec 13 2025 00:03:17 GMT+0000 (Coordinated Universal Time)

1 29601U 06052A 25344.95204922 .00000003 00000+0 00000+0 0 9993 2 29601 54.9709 221.4692 0087723 87.4136 273.6655 2.00573438139634
UTC large
Height (km)
Speed (km/s)
/
Latitude / Longitude
Inclination (degrees)
Orbital Period (minutes)
Azimuth
Elevation
Range (km)
Doppler Factor

Next 0 passes for location: London (51.5072 / 0.1276)

Sorry there are no passes over London.